Time,TemperatureF,DewpointF,PressureIn,WindDirection,WindDirectionDegrees,WindSpeedMPH,WindSpeedGustMPH,Humidity,HourlyPrecipIn,Conditions,Clouds,dailyrainin,SoftwareType,DateUTC
2013-03-25 00:02:00,28.4,27.1,28.97,SW,225,0.0,0.0,95,0.00,,---,0.00,VWS V14.01,2013-03-25 05:02:00,
2013-03-25 00:07:00,28.4,27.4,28.97,SW,225,0.0,0.0,96,0.00,,---,0.00,VWS V14.01,2013-03-25 05:07:00,
2013-03-25 00:12:00,28.4,27.4,28.97,SW,225,0.0,0.0,96,0.00,,---,0.00,VWS V14.01,2013-03-25 05:12:00,
2013-03-25 00:17:00,28.6,27.3,28.97,SW,225,0.0,0.0,95,0.00,,---,0.00,VWS V14.01,2013-03-25 05:17:00,
2013-03-25 00:22:00,28.6,27.3,28.97,SW,225,0.0,0.0,95,0.00,,---,0.00,VWS V14.01,2013-03-25 05:22:00,
2013-03-25 00:27:00,28.6,27.6,28.97,SW,225,0.0,0.0,96,0.00,,---,0.00,VWS V14.01,2013-03-25 05:27:00,
2013-03-25 00:32:00,28.6,27.6,28.97,SW,225,0.0,0.0,96,0.00,,---,0.00,VWS V14.01,2013-03-25 05:32:00,
2013-03-25 00:38:00,28.6,27.6,28.97,SW,225,0.0,0.0,96,0.00,,---,0.00,VWS V14.01,2013-03-25 05:38:00,
2013-03-25 00:43:00,28.4,27.4,28.97,SW,225,0.0,0.0,96,0.00,,---,0.00,VWS V14.01,2013-03-25 05:43:00,
2013-03-25 00:48:00,28.4,27.4,28.97,SW,225,0.0,0.0,96,0.00,,---,0.00,VWS V14.01,2013-03-25 05:48:00,
2013-03-25 00:53:00,28.4,27.4,28.97,SW,225,0.0,0.0,96,0.00,,---,0.00,VWS V14.01,2013-03-25 05:53:00,
2013-03-25 00:58:00,28.4,27.4,28.97,SW,225,0.0,0.0,96,0.00,,---,0.00,VWS V14.01,2013-03-25 05:58:00,
2013-03-25 01:03:00,28.4,27.4,28.97,SW,225,0.0,0.0,96,0.00,,---,0.00,VWS V14.01,2013-03-25 06:03:00,
2013-03-25 01:08:00,28.4,27.4,28.97,SW,225,0.0,0.0,96,0.00,,---,0.00,VWS V14.01,2013-03-25 06:08:00,
2013-03-25 01:13:00,28.4,27.4,28.97,SW,225,0.0,0.0,96,0.00,,---,0.00,VWS V14.01,2013-03-25 06:13:00,
2013-03-25 01:18:00,28.2,27.2,28.97,SW,225,0.0,0.0,96,0.00,,---,0.00,VWS V14.01,2013-03-25 06:18:00,
2013-03-25 01:23:00,28.2,27.2,28.97,SW,225,0.0,0.0,96,0.00,,---,0.00,VWS V14.01,2013-03-25 06:23:00,
2013-03-25 01:28:00,28.2,27.2,28.97,SW,225,0.0,0.0,96,0.00,,---,0.00,VWS V14.01,2013-03-25 06:28:00,
2013-03-25 01:33:00,28.2,27.2,28.97,SW,225,0.0,0.0,96,0.00,,---,0.00,VWS V14.01,2013-03-25 06:33:00,
2013-03-25 01:38:00,28.2,27.2,28.97,SW,225,0.0,0.0,96,0.00,,---,0.00,VWS V14.01,2013-03-25 06:38:00,
2013-03-25 01:44:00,28.0,27.0,28.97,SW,225,0.0,0.0,96,0.00,,---,0.00,VWS V14.01,2013-03-25 06:44:00,
2013-03-25 01:49:00,28.0,26.8,28.97,SW,225,0.0,0.0,95,0.00,,---,0.00,VWS V14.01,2013-03-25 06:49:00,
2013-03-25 01:54:00,28.0,26.8,28.97,SW,225,0.0,0.0,95,0.00,,---,0.00,VWS V14.01,2013-03-25 06:54:00,
2013-03-25 01:59:00,28.0,26.8,28.97,SW,225,0.0,0.0,95,0.00,,---,0.00,VWS V14.01,2013-03-25 06:59:00,
2013-03-25 02:04:00,27.9,26.6,28.97,SW,225,0.0,0.0,95,0.00,,---,0.00,VWS V14.01,2013-03-25 07:04:00,
2013-03-25 02:09:00,27.9,26.6,28.97,SW,225,0.0,0.0,95,0.00,,---,0.00,VWS V14.01,2013-03-25 07:09:00,
2013-03-25 02:14:00,27.9,26.9,28.97,SW,225,0.0,0.0,96,0.00,,---,0.00,VWS V14.01,2013-03-25 07:14:00,
2013-03-25 02:19:00,27.9,26.9,28.97,SW,225,0.0,0.0,96,0.00,,---,0.00,VWS V14.01,2013-03-25 07:19:00,
2013-03-25 02:24:00,27.9,26.9,28.97,SW,225,0.0,0.0,96,0.00,,---,0.00,VWS V14.01,2013-03-25 07:24:00,
2013-03-25 02:29:00,28.0,27.0,28.97,SW,225,0.0,0.0,96,0.00,,---,0.00,VWS V14.01,2013-03-25 07:29:00,
2013-03-25 02:34:00,28.0,27.0,28.97,SW,225,0.0,0.0,96,0.00,,---,0.00,VWS V14.01,2013-03-25 07:34:00,
2013-03-25 02:39:00,27.9,26.9,28.97,SW,225,0.0,0.0,96,0.00,,---,0.00,VWS V14.01,2013-03-25 07:39:00,
2013-03-25 02:44:00,27.9,26.9,28.97,SW,225,0.0,0.0,96,0.00,,---,0.00,VWS V14.01,2013-03-25 07:44:00,
2013-03-25 02:49:00,27.9,26.9,28.97,SW,225,0.0,0.0,96,0.00,,---,0.00,VWS V14.01,2013-03-25 07:49:00,
2013-03-25 02:54:00,27.9,26.9,28.97,SW,225,0.0,0.0,96,0.00,,---,0.00,VWS V14.01,2013-03-25 07:54:00,
2013-03-25 02:59:00,27.9,26.9,28.97,SW,225,0.0,0.0,96,0.00,,---,0.00,VWS V14.01,2013-03-25 07:59:00,
2013-03-25 03:05:00,27.9,26.9,28.97,SW,225,0.0,0.0,96,0.00,,---,0.00,VWS V14.01,2013-03-25 08:05:00,
2013-03-25 03:10:00,28.0,27.0,28.97,SW,225,0.0,0.0,96,0.00,,---,0.00,VWS V14.01,2013-03-25 08:10:00,
2013-03-25 03:15:00,28.0,27.3,28.97,SW,225,0.0,0.0,97,0.00,,---,0.00,VWS V14.01,2013-03-25 08:15:00,
2013-03-25 03:20:00,28.0,27.3,28.97,SW,225,0.0,0.0,97,0.00,,---,0.00,VWS V14.01,2013-03-25 08:20:00,
2013-03-25 03:25:00,28.0,27.3,28.97,SW,225,0.0,0.0,97,0.00,,---,0.00,VWS V14.01,2013-03-25 08:25:00,
2013-03-25 03:30:00,28.0,27.3,28.97,SW,225,0.0,0.0,97,0.00,,---,0.00,VWS V14.01,2013-03-25 08:30:00,
2013-03-25 03:35:00,28.0,27.3,28.97,SW,225,0.0,0.0,97,0.00,,---,0.00,VWS V14.01,2013-03-25 08:35:00,
2013-03-25 03:40:00,28.0,27.3,28.97,SW,225,0.0,0.0,97,0.00,,---,0.00,VWS V14.01,2013-03-25 08:40:00,
2013-03-25 03:45:00,28.0,27.3,28.97,SW,225,0.0,0.0,97,0.00,,---,0.00,VWS V14.01,2013-03-25 08:45:00,
2013-03-25 03:50:00,28.0,27.3,28.97,SW,225,0.0,0.0,97,0.00,,---,0.00,VWS V14.01,2013-03-25 08:50:00,
2013-03-25 03:55:00,28.0,27.3,28.97,SW,225,0.0,0.0,97,0.00,,---,0.00,VWS V14.01,2013-03-25 08:55:00,
2013-03-25 04:00:00,28.2,27.5,28.97,SW,225,0.0,0.0,97,0.00,,---,0.00,VWS V14.01,2013-03-25 09:00:00,
2013-03-25 04:05:00,28.2,27.5,28.97,SW,225,0.0,0.0,97,0.00,,---,0.00,VWS V14.01,2013-03-25 09:05:00,
2013-03-25 04:11:00,28.2,27.5,28.97,SW,225,0.0,0.0,97,0.00,,---,0.00,VWS V14.01,2013-03-25 09:11:00,
2013-03-25 04:16:00,28.2,27.5,28.97,SW,225,0.0,0.0,97,0.00,,---,0.00,VWS V14.01,2013-03-25 09:16:00,
2013-03-25 04:21:00,28.2,27.5,28.97,SW,225,0.0,0.0,97,0.00,,---,0.00,VWS V14.01,2013-03-25 09:21:00,
2013-03-25 04:26:00,28.2,27.5,28.97,SW,225,0.0,0.0,97,0.00,,---,0.00,VWS V14.01,2013-03-25 09:26:00,
2013-03-25 04:31:00,28.2,27.5,28.97,SW,225,0.0,0.0,97,0.00,,---,0.00,VWS V14.01,2013-03-25 09:31:00,
2013-03-25 04:36:00,28.2,27.2,28.97,SW,225,0.0,0.0,96,0.00,,---,0.00,VWS V14.01,2013-03-25 09:36:00,
2013-03-25 04:41:00,28.2,27.2,28.97,SW,225,0.0,0.0,96,0.00,,---,0.00,VWS V14.01,2013-03-25 09:41:00,
2013-03-25 04:46:00,28.2,27.2,28.97,SW,225,0.0,0.0,96,0.00,,---,0.00,VWS V14.01,2013-03-25 09:46:00,
2013-03-25 04:51:00,28.2,27.2,28.97,SW,225,0.0,0.0,96,0.00,,---,0.00,VWS V14.01,2013-03-25 09:51:00,
2013-03-25 04:57:00,28.2,27.2,28.97,SW,225,0.0,0.0,96,0.00,,---,0.00,VWS V14.01,2013-03-25 09:57:00,
2013-03-25 05:02:00,28.2,27.2,28.97,SW,225,0.0,0.0,96,0.00,,---,0.00,VWS V14.01,2013-03-25 10:02:00,
2013-03-25 05:07:00,28.2,27.0,28.97,SW,225,0.0,0.0,95,0.00,,---,0.00,VWS V14.01,2013-03-25 10:07:00,
2013-03-25 05:12:00,28.2,27.0,28.97,SW,225,0.0,0.0,95,0.00,,---,0.00,VWS V14.01,2013-03-25 10:12:00,
2013-03-25 05:17:00,28.2,27.0,28.97,SW,225,0.0,0.0,95,0.00,,---,0.00,VWS V14.01,2013-03-25 10:17:00,
2013-03-25 05:22:00,28.0,26.8,28.97,SW,225,0.0,0.0,95,0.00,,---,0.00,VWS V14.01,2013-03-25 10:22:00,
2013-03-25 05:27:00,28.0,26.8,28.97,SW,225,0.0,0.0,95,0.00,,---,0.00,VWS V14.01,2013-03-25 10:27:00,
2013-03-25 05:32:00,28.0,26.5,28.97,SW,225,0.0,0.0,94,0.00,,---,0.00,VWS V14.01,2013-03-25 10:32:00,
2013-03-25 05:37:00,28.0,26.5,28.97,SW,225,0.0,0.0,94,0.00,,---,0.00,VWS V14.01,2013-03-25 10:37:00,
2013-03-25 05:42:00,28.0,26.5,28.97,SW,225,0.0,0.0,94,0.00,,---,0.00,VWS V14.01,2013-03-25 10:42:00,
2013-03-25 05:47:00,28.0,26.3,29.00,SW,225,0.0,0.0,93,0.00,,---,0.00,VWS V14.01,2013-03-25 10:47:00,
2013-03-25 05:52:00,28.0,26.3,29.00,SW,225,0.0,0.0,93,0.00,,---,0.00,VWS V14.01,2013-03-25 10:52:00,
2013-03-25 05:58:00,28.0,26.3,29.00,SW,225,0.0,0.0,93,0.00,,---,0.00,VWS V14.01,2013-03-25 10:58:00,
2013-03-25 06:03:00,28.0,26.5,29.00,SW,225,0.0,0.0,94,0.00,,---,0.00,VWS V14.01,2013-03-25 11:03:00,
2013-03-25 06:08:00,28.0,26.5,29.00,SW,225,0.0,0.0,94,0.00,,---,0.00,VWS V14.01,2013-03-25 11:08:00,
2013-03-25 06:13:00,28.0,26.3,29.00,SW,225,0.0,0.0,93,0.00,,---,0.00,VWS V14.01,2013-03-25 11:13:00,
2013-03-25 06:18:00,28.0,26.3,29.00,SW,225,0.0,0.0,93,0.00,,---,0.00,VWS V14.01,2013-03-25 11:18:00,
2013-03-25 06:23:00,28.0,26.3,29.00,SW,225,0.0,0.0,93,0.00,,---,0.00,VWS V14.01,2013-03-25 11:23:00,
2013-03-25 06:28:00,27.9,25.8,29.00,SW,225,0.0,0.0,92,0.00,,---,0.00,VWS V14.01,2013-03-25 11:28:00,
2013-03-25 06:34:00,27.9,25.6,29.00,SW,225,0.0,0.0,91,0.00,,---,0.00,VWS V14.01,2013-03-25 11:34:00,
2013-03-25 06:39:00,27.7,25.4,29.00,SW,225,0.0,0.0,91,0.00,,---,0.00,VWS V14.01,2013-03-25 11:39:00,
2013-03-25 06:44:00,27.7,25.4,29.00,SW,225,0.0,0.0,91,0.00,,---,0.00,VWS V14.01,2013-03-25 11:44:00,
2013-03-25 06:49:00,27.7,25.1,29.00,SW,225,0.0,0.0,90,0.00,,---,0.00,VWS V14.01,2013-03-25 11:49:00,
2013-03-25 06:54:00,27.5,25.0,29.00,SW,225,0.0,0.0,90,0.00,,---,0.00,VWS V14.01,2013-03-25 11:54:00,
2013-03-25 06:59:00,27.5,25.0,29.00,SW,225,0.0,0.0,90,0.00,,---,0.00,VWS V14.01,2013-03-25 11:59:00,
2013-03-25 07:04:00,27.3,24.8,29.00,SW,225,0.0,0.0,90,0.00,,---,0.00,VWS V14.01,2013-03-25 12:04:00,
2013-03-25 07:09:00,27.1,24.6,29.00,SW,225,0.0,0.0,90,0.00,,---,0.00,VWS V14.01,2013-03-25 12:09:00,
2013-03-25 07:15:00,27.1,24.6,29.03,SW,225,0.0,0.0,90,0.00,,---,0.00,VWS V14.01,2013-03-25 12:15:00,
2013-03-25 07:20:00,27.1,24.9,29.03,SW,225,0.0,0.0,91,0.00,,---,0.00,VWS V14.01,2013-03-25 12:20:00,
2013-03-25 07:25:00,27.1,24.9,29.03,SW,225,0.0,0.0,91,0.00,,---,0.00,VWS V14.01,2013-03-25 12:25:00,
2013-03-25 07:30:00,27.0,24.7,29.03,SW,225,0.0,0.0,91,0.00,,---,0.00,VWS V14.01,2013-03-25 12:30:00,
2013-03-25 07:35:00,27.0,24.7,29.03,SW,225,0.0,0.0,91,0.00,,---,0.00,VWS V14.01,2013-03-25 12:35:00,
2013-03-25 07:40:00,27.0,25.0,29.03,SW,225,0.0,0.0,92,0.00,,---,0.00,VWS V14.01,2013-03-25 12:40:00,
2013-03-25 07:45:00,27.0,24.7,29.03,SW,225,0.0,0.0,91,0.00,,---,0.00,VWS V14.01,2013-03-25 12:45:00,
2013-03-25 07:50:00,27.1,24.9,29.03,SW,225,0.0,0.0,91,0.00,,---,0.00,VWS V14.01,2013-03-25 12:50:00,
2013-03-25 07:55:00,27.1,24.6,29.03,SW,225,0.0,0.0,90,0.00,,---,0.00,VWS V14.01,2013-03-25 12:55:00,
2013-03-25 08:01:00,27.3,24.5,29.03,SW,225,0.0,0.0,89,0.00,,---,0.00,VWS V14.01,2013-03-25 13:01:00,
2013-03-25 08:06:00,27.3,24.5,29.03,SW,225,0.0,0.0,89,0.00,,---,0.00,VWS V14.01,2013-03-25 13:06:00,
2013-03-25 08:11:00,27.3,24.2,29.03,SW,225,0.0,0.0,88,0.00,,---,0.00,VWS V14.01,2013-03-25 13:11:00,
2013-03-25 08:16:00,27.5,24.1,29.06,SW,225,0.0,0.0,87,0.00,,---,0.00,VWS V14.01,2013-03-25 13:16:00,
2013-03-25 08:21:00,27.5,23.9,29.06,SW,225,0.0,0.0,86,0.00,,---,0.00,VWS V14.01,2013-03-25 13:21:00,
2013-03-25 08:26:00,27.7,24.0,29.06,SW,225,0.0,0.0,86,0.00,,---,0.00,VWS V14.01,2013-03-25 13:26:00,
2013-03-25 08:32:00,27.7,24.0,29.06,SW,225,0.0,0.0,86,0.00,,---,0.00,VWS V14.01,2013-03-25 13:32:00,
2013-03-25 08:37:00,27.7,23.8,29.06,SW,225,0.0,0.0,85,0.00,,---,0.00,VWS V14.01,2013-03-25 13:37:00,
2013-03-25 08:42:00,27.9,24.0,29.06,SW,225,0.0,0.0,85,0.00,,---,0.00,VWS V14.01,2013-03-25 13:42:00,
2013-03-25 08:47:00,27.9,23.4,29.06,SW,225,0.0,0.0,83,0.00,,---,0.00,VWS V14.01,2013-03-25 13:47:00,
2013-03-25 08:52:00,28.0,23.5,29.06,SW,225,0.0,0.0,83,0.00,,---,0.00,VWS V14.01,2013-03-25 13:52:00,
2013-03-25 08:57:00,28.0,23.5,29.06,SW,225,0.0,0.0,83,0.00,,---,0.00,VWS V14.01,2013-03-25 13:57:00,
2013-03-25 09:02:00,28.2,23.4,29.06,SW,225,0.0,0.0,82,0.00,,---,0.00,VWS V14.01,2013-03-25 14:02:00,
2013-03-25 09:07:00,28.4,23.3,29.06,SW,225,0.0,0.0,81,0.00,,---,0.00,VWS V14.01,2013-03-25 14:07:00,
2013-03-25 09:12:00,28.6,23.2,29.06,SW,225,0.0,0.0,80,0.00,,---,0.00,VWS V14.01,2013-03-25 14:12:00,
2013-03-25 09:17:00,28.6,23.2,29.06,SW,225,0.0,0.0,80,0.00,,---,0.00,VWS V14.01,2013-03-25 14:17:00,
2013-03-25 09:23:00,28.6,22.6,29.06,SW,225,0.0,0.0,78,0.00,,---,0.00,VWS V14.01,2013-03-25 14:23:00,
2013-03-25 09:28:00,28.6,20.7,29.06,SW,225,0.0,0.0,72,0.00,,---,0.00,VWS V14.01,2013-03-25 14:28:00,
2013-03-25 09:33:00,28.6,20.4,29.06,SW,225,0.0,0.0,71,0.00,,---,0.00,VWS V14.01,2013-03-25 14:33:00,
2013-03-25 09:38:00,28.6,20.4,29.06,SW,225,0.0,0.0,71,0.00,,---,0.00,VWS V14.01,2013-03-25 14:38:00,
2013-03-25 09:43:00,28.8,20.9,29.06,SW,225,0.0,0.0,72,0.00,,---,0.00,VWS V14.01,2013-03-25 14:43:00,
2013-03-25 09:48:00,29.3,19.7,29.06,SW,225,0.0,0.0,67,0.00,,---,0.00,VWS V14.01,2013-03-25 14:48:00,
2013-03-25 09:53:00,30.0,20.4,29.06,SW,225,0.0,0.0,67,0.00,,---,0.00,VWS V14.01,2013-03-25 14:53:00,
2013-03-25 09:58:00,30.2,20.6,29.06,SW,225,0.0,0.0,67,0.00,,---,0.00,VWS V14.01,2013-03-25 14:58:00,
2013-03-25 10:03:00,30.2,19.9,29.06,SW,225,0.0,0.0,65,0.00,,---,0.00,VWS V14.01,2013-03-25 15:03:00,
2013-03-25 10:08:00,30.0,19.3,29.06,SW,225,0.0,0.0,64,0.00,,---,0.00,VWS V14.01,2013-03-25 15:08:00,
2013-03-25 10:13:00,30.0,18.6,29.09,SW,225,0.0,0.0,62,0.00,,---,0.00,VWS V14.01,2013-03-25 15:13:00,
2013-03-25 10:19:00,30.2,18.0,29.09,SW,225,0.0,0.0,60,0.00,,---,0.00,VWS V14.01,2013-03-25 15:19:00,
2013-03-25 10:24:00,30.6,18.3,29.09,SW,225,0.0,0.0,60,0.00,,---,0.00,VWS V14.01,2013-03-25 15:24:00,
2013-03-25 10:29:00,31.1,18.9,29.09,SW,225,0.0,0.0,60,0.00,,---,0.00,VWS V14.01,2013-03-25 15:29:00,
2013-03-25 10:34:00,31.1,18.1,29.09,SW,225,0.0,0.0,58,0.00,,---,0.00,VWS V14.01,2013-03-25 15:34:00,
2013-03-25 10:39:00,31.3,18.2,29.09,SW,225,0.0,0.0,58,0.00,,---,0.00,VWS V14.01,2013-03-25 15:39:00,
2013-03-25 10:44:00,31.6,19.0,29.09,SW,225,0.0,0.0,59,0.00,,---,0.00,VWS V14.01,2013-03-25 15:44:00,
2013-03-25 10:49:00,32.0,18.9,29.09,SW,225,0.0,0.0,58,0.00,,---,0.00,VWS V14.01,2013-03-25 15:49:00,
2013-03-25 10:54:00,31.8,17.9,29.09,SW,225,0.0,0.0,56,0.00,,---,0.00,VWS V14.01,2013-03-25 15:54:00,
2013-03-25 10:59:00,32.0,18.5,29.09,SW,225,0.0,0.0,57,0.00,,---,0.00,VWS V14.01,2013-03-25 15:59:00,
2013-03-25 11:04:00,32.5,19.4,29.09,SW,225,0.0,0.0,58,0.00,,---,0.00,VWS V14.01,2013-03-25 16:04:00,
2013-03-25 11:09:00,32.9,19.4,29.09,SW,225,0.0,0.0,57,0.00,,---,0.00,VWS V14.01,2013-03-25 16:09:00,
2013-03-25 11:14:00,32.7,18.8,29.09,SW,225,0.0,0.0,56,0.00,,---,0.00,VWS V14.01,2013-03-25 16:14:00,
2013-03-25 11:19:00,32.7,18.4,29.09,SW,225,0.0,0.0,55,0.00,,---,0.00,VWS V14.01,2013-03-25 16:19:00,
2013-03-25 11:25:00,33.1,19.1,29.09,SW,225,0.0,0.0,56,0.00,,---,0.00,VWS V14.01,2013-03-25 16:25:00,
2013-03-25 11:30:00,33.1,19.1,29.09,SW,225,0.0,0.0,56,0.00,,---,0.00,VWS V14.01,2013-03-25 16:30:00,
2013-03-25 11:35:00,32.7,18.4,29.09,SW,225,0.0,0.0,55,0.00,,---,0.00,VWS V14.01,2013-03-25 16:35:00,
2013-03-25 11:40:00,32.9,18.5,29.09,SW,225,0.0,0.0,55,0.00,,---,0.00,VWS V14.01,2013-03-25 16:40:00,
2013-03-25 11:45:00,33.1,18.7,29.09,SW,225,0.0,0.0,55,0.00,,---,0.00,VWS V14.01,2013-03-25 16:45:00,
2013-03-25 11:50:00,33.3,19.3,29.09,SW,225,0.0,0.0,56,0.00,,---,0.00,VWS V14.01,2013-03-25 16:50:00,
2013-03-25 11:55:00,33.8,19.8,29.09,SW,225,0.0,0.0,56,0.00,,---,0.00,VWS V14.01,2013-03-25 16:55:00,
2013-03-25 12:00:00,33.8,18.9,29.09,SW,225,0.0,0.0,54,0.00,,---,0.00,VWS V14.01,2013-03-25 17:00:00,
2013-03-25 12:05:00,34.0,19.1,29.09,SW,225,0.0,0.0,54,0.00,,---,0.00,VWS V14.01,2013-03-25 17:05:00,
2013-03-25 12:11:00,33.6,18.3,29.09,SW,225,0.0,0.0,53,0.00,,---,0.00,VWS V14.01,2013-03-25 17:11:00,
2013-03-25 12:16:00,34.0,18.7,29.12,SW,225,0.0,0.0,53,0.00,,---,0.00,VWS V14.01,2013-03-25 17:16:00,
2013-03-25 12:21:00,34.3,19.0,29.12,SW,225,0.0,0.0,53,0.00,,---,0.00,VWS V14.01,2013-03-25 17:21:00,
2013-03-25 12:26:00,34.5,19.2,29.12,SW,225,0.0,0.0,53,0.00,,---,0.00,VWS V14.01,2013-03-25 17:26:00,
2013-03-25 12:31:00,35.1,19.7,29.09,SW,225,0.0,0.0,53,0.00,,---,0.00,VWS V14.01,2013-03-25 17:31:00,
2013-03-25 12:36:00,35.4,20.0,29.09,SW,225,0.0,0.0,53,0.00,,---,0.00,VWS V14.01,2013-03-25 17:36:00,
2013-03-25 12:41:00,35.6,20.2,29.09,SW,225,0.0,0.0,53,0.00,,---,0.00,VWS V14.01,2013-03-25 17:41:00,
2013-03-25 12:46:00,34.7,18.4,29.09,SW,225,0.0,0.0,51,0.00,,---,0.00,VWS V14.01,2013-03-25 17:46:00,
2013-03-25 12:52:00,34.7,18.9,29.09,SW,225,0.0,0.0,52,0.00,,---,0.00,VWS V14.01,2013-03-25 17:52:00,
2013-03-25 12:57:00,34.7,18.4,29.09,SW,225,0.0,0.0,51,0.00,,---,0.00,VWS V14.01,2013-03-25 17:57:00,
2013-03-25 13:02:00,35.4,20.0,29.12,SW,225,0.0,0.0,53,0.00,,---,0.00,VWS V14.01,2013-03-25 18:02:00,
2013-03-25 13:07:00,35.1,18.8,29.12,SW,225,0.0,0.0,51,0.00,,---,0.00,VWS V14.01,2013-03-25 18:07:00,
2013-03-25 13:12:00,34.9,18.6,29.12,SW,225,0.0,0.0,51,0.00,,---,0.00,VWS V14.01,2013-03-25 18:12:00,
2013-03-25 13:17:00,34.7,18.4,29.12,SW,225,0.0,0.0,51,0.00,,---,0.00,VWS V14.01,2013-03-25 18:17:00,
2013-03-25 13:22:00,35.1,18.8,29.12,SW,225,0.0,0.0,51,0.00,,---,0.00,VWS V14.01,2013-03-25 18:22:00,
2013-03-25 13:27:00,35.2,19.4,29.12,SW,225,0.0,0.0,52,0.00,,---,0.00,VWS V14.01,2013-03-25 18:27:00,
2013-03-25 13:32:00,35.2,18.9,29.12,SW,225,0.0,0.0,51,0.00,,---,0.00,VWS V14.01,2013-03-25 18:32:00,
2013-03-25 13:37:00,35.1,18.3,29.12,South,180,0.0,0.0,50,0.00,,---,0.00,VWS V14.01,2013-03-25 18:37:00,
2013-03-25 13:42:00,35.4,19.1,29.12,WSW,248,0.0,0.0,51,0.00,,---,0.00,VWS V14.01,2013-03-25 18:42:00,
2013-03-25 13:47:00,35.6,18.8,29.12,SSW,202,0.0,0.0,50,0.00,,---,0.00,VWS V14.01,2013-03-25 18:47:00,
2013-03-25 13:52:00,35.8,19.0,29.12,SSW,202,0.0,0.0,50,0.00,,---,0.00,VWS V14.01,2013-03-25 18:52:00,
2013-03-25 13:57:00,35.6,18.8,29.12,South,180,0.0,0.0,50,0.00,,---,0.00,VWS V14.01,2013-03-25 18:57:00,
2013-03-25 14:02:00,36.1,19.3,29.12,ESE,112,0.0,0.0,50,0.00,,---,0.00,VWS V14.01,2013-03-25 19:02:00,
2013-03-25 14:08:00,36.1,19.3,29.12,SW,225,0.0,0.0,50,0.00,,---,0.00,VWS V14.01,2013-03-25 19:08:00,
2013-03-25 14:13:00,36.0,18.7,29.12,SW,225,0.0,0.0,49,0.00,,---,0.00,VWS V14.01,2013-03-25 19:13:00,
2013-03-25 14:18:00,36.3,19.0,29.12,ESE,112,0.0,0.0,49,0.00,,---,0.00,VWS V14.01,2013-03-25 19:18:00,
2013-03-25 14:23:00,36.3,19.0,29.12,WNW,292,0.0,0.0,49,0.00,,---,0.00,VWS V14.01,2013-03-25 19:23:00,
2013-03-25 14:28:00,36.1,18.8,29.12,WSW,248,0.0,0.0,49,0.00,,---,0.00,VWS V14.01,2013-03-25 19:28:00,
2013-03-25 14:33:00,36.3,19.5,29.12,West,270,0.0,0.0,50,0.00,,---,0.00,VWS V14.01,2013-03-25 19:33:00,
2013-03-25 14:38:00,36.3,19.0,29.12,WNW,292,0.0,0.0,49,0.00,,---,0.00,VWS V14.01,2013-03-25 19:38:00,
2013-03-25 14:43:00,36.7,19.3,29.12,WSW,248,0.0,0.0,49,0.00,,---,0.00,VWS V14.01,2013-03-25 19:43:00,
2013-03-25 14:48:00,36.5,18.7,29.12,WSW,248,0.0,0.0,48,0.00,,---,0.00,VWS V14.01,2013-03-25 19:48:00,
2013-03-25 14:54:00,36.3,18.5,29.12,WNW,292,0.0,0.0,48,0.00,,---,0.00,VWS V14.01,2013-03-25 19:54:00,
2013-03-25 14:59:00,36.1,17.9,29.12,SSW,202,0.0,0.0,47,0.00,,---,0.00,VWS V14.01,2013-03-25 19:59:00,
2013-03-25 15:04:00,36.1,17.9,29.12,WNW,292,0.0,0.0,47,0.00,,---,0.00,VWS V14.01,2013-03-25 20:04:00,
2013-03-25 15:09:00,36.0,17.2,29.12,SW,225,0.0,0.0,46,0.00,,---,0.00,VWS V14.01,2013-03-25 20:09:00,
2013-03-25 15:14:00,36.0,17.7,29.12,WNW,292,0.0,0.0,47,0.00,,---,0.00,VWS V14.01,2013-03-25 20:14:00,
2013-03-25 15:19:00,36.1,17.9,29.12,SW,225,0.0,0.0,47,0.00,,---,0.00,VWS V14.01,2013-03-25 20:19:00,
2013-03-25 15:24:00,36.0,18.2,29.12,WSW,248,0.0,0.0,48,0.00,,---,0.00,VWS V14.01,2013-03-25 20:24:00,
2013-03-25 15:29:00,35.8,17.5,29.12,NNW,338,0.0,0.0,47,0.00,,---,0.00,VWS V14.01,2013-03-25 20:29:00,
2013-03-25 15:34:00,35.6,16.9,29.12,SW,225,0.0,0.0,46,0.00,,---,0.00,VWS V14.01,2013-03-25 20:34:00,
2013-03-25 15:39:00,35.6,16.4,29.12,SW,225,0.0,0.0,45,0.00,,---,0.00,VWS V14.01,2013-03-25 20:39:00,
2013-03-25 15:44:00,35.6,17.4,29.12,SW,225,0.0,0.0,47,0.00,,---,0.00,VWS V14.01,2013-03-25 20:44:00,
2013-03-25 15:50:00,35.6,16.9,29.12,WNW,292,0.0,0.0,46,0.00,,---,0.00,VWS V14.01,2013-03-25 20:50:00,
2013-03-25 15:55:00,35.4,17.2,29.12,WSW,248,0.0,0.0,47,0.00,,---,0.00,VWS V14.01,2013-03-25 20:55:00,
2013-03-25 16:00:00,35.4,18.6,29.12,WNW,292,0.0,0.0,50,0.00,,---,0.00,VWS V14.01,2013-03-25 21:00:00,
2013-03-25 16:05:00,35.4,19.1,29.12,WSW,248,0.0,0.0,51,0.00,,---,0.00,VWS V14.01,2013-03-25 21:05:00,
2013-03-25 16:10:00,35.4,17.2,29.12,WSW,248,0.0,0.0,47,0.00,,---,0.00,VWS V14.01,2013-03-25 21:10:00,
2013-03-25 16:15:00,35.4,16.2,29.14,West,270,0.0,0.0,45,0.00,,---,0.00,VWS V14.01,2013-03-25 21:15:00,
2013-03-25 16:20:00,35.6,16.4,29.14,WNW,292,0.0,0.0,45,0.00,,---,0.00,VWS V14.01,2013-03-25 21:20:00,
2013-03-25 16:25:00,35.8,16.5,29.14,West,270,0.0,0.0,45,0.00,,---,0.00,VWS V14.01,2013-03-25 21:25:00,
2013-03-25 16:30:00,35.8,17.0,29.14,WNW,292,0.0,0.0,46,0.00,,---,0.00,VWS V14.01,2013-03-25 21:30:00,
2013-03-25 16:35:00,35.8,16.0,29.14,WSW,248,0.0,0.0,44,0.00,,---,0.00,VWS V14.01,2013-03-25 21:35:00,
2013-03-25 16:40:00,35.8,17.0,29.14,West,270,0.0,0.0,46,0.00,,---,0.00,VWS V14.01,2013-03-25 21:40:00,
2013-03-25 16:46:00,35.6,17.4,29.14,WSW,248,0.0,0.0,47,0.00,,---,0.00,VWS V14.01,2013-03-25 21:46:00,
2013-03-25 16:51:00,35.6,15.9,29.14,WNW,292,0.0,0.0,44,0.00,,---,0.00,VWS V14.01,2013-03-25 21:51:00,
2013-03-25 16:56:00,35.2,15.5,29.14,SW,225,0.0,0.0,44,0.00,,---,0.00,VWS V14.01,2013-03-25 21:56:00,
2013-03-25 17:01:00,35.2,16.5,29.14,SW,225,0.0,0.0,46,0.00,,---,0.00,VWS V14.01,2013-03-25 22:01:00,
2013-03-25 17:06:00,35.2,16.5,29.14,SSW,202,0.0,0.0,46,0.00,,---,0.00,VWS V14.01,2013-03-25 22:06:00,
2013-03-25 17:11:00,35.1,16.4,29.14,West,270,0.0,0.0,46,0.00,,---,0.00,VWS V14.01,2013-03-25 22:11:00,
2013-03-25 17:16:00,34.9,15.7,29.14,SW,225,0.0,0.0,45,0.00,,---,0.00,VWS V14.01,2013-03-25 22:16:00,
2013-03-25 17:21:00,34.9,16.2,29.14,WNW,292,0.0,0.0,46,0.00,,---,0.00,VWS V14.01,2013-03-25 22:21:00,
2013-03-25 17:26:00,34.9,16.2,29.14,WSW,248,0.0,0.0,46,0.00,,---,0.00,VWS V14.01,2013-03-25 22:26:00,
2013-03-25 17:32:00,34.9,17.2,29.14,WNW,292,0.0,0.0,48,0.00,,---,0.00,VWS V14.01,2013-03-25 22:32:00,
2013-03-25 17:37:00,34.9,16.7,29.14,WNW,292,0.0,0.0,47,0.00,,---,0.00,VWS V14.01,2013-03-25 22:37:00,
2013-03-25 17:42:00,34.9,16.7,29.14,WNW,292,0.0,0.0,47,0.00,,---,0.00,VWS V14.01,2013-03-25 22:42:00,
2013-03-25 17:47:00,34.9,16.7,29.14,WSW,248,0.0,0.0,47,0.00,,---,0.00,VWS V14.01,2013-03-25 22:47:00,
2013-03-25 17:52:00,34.7,17.0,29.14,WNW,292,0.0,0.0,48,0.00,,---,0.00,VWS V14.01,2013-03-25 22:52:00,
2013-03-25 17:57:00,34.7,17.0,29.14,WSW,248,0.0,0.0,48,0.00,,---,0.00,VWS V14.01,2013-03-25 22:57:00,
2013-03-25 18:02:00,34.7,17.5,29.17,West,270,0.0,0.0,49,0.00,,---,0.00,VWS V14.01,2013-03-25 23:02:00,
2013-03-25 18:07:00,34.7,18.0,29.17,WNW,292,0.0,0.0,50,0.00,,---,0.00,VWS V14.01,2013-03-25 23:07:00,
2013-03-25 18:12:00,34.7,18.0,29.17,NW,315,0.0,0.0,50,0.00,,---,0.00,VWS V14.01,2013-03-25 23:12:00,
2013-03-25 18:17:00,34.5,17.8,29.17,WNW,292,0.0,0.0,50,0.00,,---,0.00,VWS V14.01,2013-03-25 23:17:00,
2013-03-25 18:22:00,34.5,17.8,29.17,WNW,292,0.0,0.0,50,0.00,,---,0.00,VWS V14.01,2013-03-25 23:22:00,
2013-03-25 18:27:00,34.3,17.6,29.17,WSW,248,0.0,0.0,50,0.00,,---,0.00,VWS V14.01,2013-03-25 23:27:00,
2013-03-25 18:33:00,34.2,17.9,29.17,WSW,248,0.0,0.0,51,0.00,,---,0.00,VWS V14.01,2013-03-25 23:33:00,
2013-03-25 18:38:00,34.0,17.3,29.17,WNW,292,0.0,0.0,50,0.00,,---,0.00,VWS V14.01,2013-03-25 23:38:00,
2013-03-25 18:43:00,33.8,17.1,29.17,WNW,292,0.0,0.0,50,0.00,,---,0.00,VWS V14.01,2013-03-25 23:43:00,
2013-03-25 18:48:00,33.6,17.0,29.17,WSW,248,0.0,0.0,50,0.00,,---,0.00,VWS V14.01,2013-03-25 23:48:00,
2013-03-25 18:53:00,33.6,17.4,29.17,WSW,248,0.0,0.0,51,0.00,,---,0.00,VWS V14.01,2013-03-25 23:53:00,
2013-03-25 18:58:00,33.4,17.3,29.17,WSW,248,0.0,0.0,51,0.00,,---,0.00,VWS V14.01,2013-03-25 23:58:00,
2013-03-25 19:03:00,33.3,17.1,29.17,WNW,292,0.0,0.0,51,0.00,,---,0.00,VWS V14.01,2013-03-26 00:03:00,
2013-03-25 19:08:00,33.1,17.4,29.17,West,270,0.0,0.0,52,0.00,,---,0.00,VWS V14.01,2013-03-26 00:08:00,
2013-03-25 19:13:00,33.1,17.4,29.17,SE,135,0.0,0.0,52,0.00,,---,0.00,VWS V14.01,2013-03-26 00:13:00,
2013-03-25 19:18:00,32.9,17.7,29.20,WNW,292,0.0,0.0,53,0.00,,---,0.00,VWS V14.01,2013-03-26 00:18:00,
2013-03-25 19:23:00,32.7,17.5,29.20,West,270,0.0,0.0,53,0.00,,---,0.00,VWS V14.01,2013-03-26 00:23:00,
2013-03-25 19:28:00,32.7,17.5,29.20,WNW,292,0.0,0.0,53,0.00,,---,0.00,VWS V14.01,2013-03-26 00:28:00,
2013-03-25 19:34:00,32.5,17.3,29.20,West,270,0.0,0.0,53,0.00,,---,0.00,VWS V14.01,2013-03-26 00:34:00,
2013-03-25 19:39:00,32.5,17.3,29.20,WSW,248,0.0,0.0,53,0.00,,---,0.00,VWS V14.01,2013-03-26 00:39:00,
2013-03-25 19:44:00,32.4,17.1,29.20,WNW,292,0.0,0.0,53,0.00,,---,0.00,VWS V14.01,2013-03-26 00:44:00,
2013-03-25 19:49:00,32.2,17.0,29.20,WNW,292,0.0,0.0,53,0.00,,---,0.00,VWS V14.01,2013-03-26 00:49:00,
2013-03-25 19:54:00,32.0,17.2,29.20,WNW,292,0.0,0.0,54,0.00,,---,0.00,VWS V14.01,2013-03-26 00:54:00,
2013-03-25 19:59:00,32.0,17.2,29.20,WNW,292,0.0,0.0,54,0.00,,---,0.00,VWS V14.01,2013-03-26 00:59:00,
2013-03-25 20:04:00,31.8,17.1,29.20,NW,315,0.0,0.0,54,0.00,,---,0.00,VWS V14.01,2013-03-26 01:04:00,
2013-03-25 20:09:00,31.6,17.3,29.20,WNW,292,0.0,0.0,55,0.00,,---,0.00,VWS V14.01,2013-03-26 01:09:00,
2013-03-25 20:14:00,31.6,17.3,29.20,West,270,0.0,0.0,55,0.00,,---,0.00,VWS V14.01,2013-03-26 01:14:00,
2013-03-25 20:19:00,31.8,17.5,29.20,SSW,202,0.0,0.0,55,0.00,,---,0.00,VWS V14.01,2013-03-26 01:19:00,
2013-03-25 20:25:00,31.6,17.3,29.20,WNW,292,0.0,0.0,55,0.00,,---,0.00,VWS V14.01,2013-03-26 01:25:00,
2013-03-25 20:30:00,31.6,16.9,29.20,West,270,0.0,0.0,54,0.00,,---,0.00,VWS V14.01,2013-03-26 01:30:00,
2013-03-25 20:35:00,31.6,16.9,29.20,WNW,292,0.0,0.0,54,0.00,,---,0.00,VWS V14.01,2013-03-26 01:35:00,
2013-03-25 20:40:00,31.6,16.9,29.20,SSW,202,0.0,0.0,54,0.00,,---,0.00,VWS V14.01,2013-03-26 01:40:00,
2013-03-25 20:45:00,31.6,16.9,29.20,SW,225,0.0,0.0,54,0.00,,---,0.00,VWS V14.01,2013-03-26 01:45:00,
2013-03-25 20:50:00,31.8,17.1,29.20,WNW,292,0.0,0.0,54,0.00,,---,0.00,VWS V14.01,2013-03-26 01:50:00,
2013-03-25 20:55:00,31.6,16.9,29.20,West,270,0.0,0.0,54,0.00,,---,0.00,VWS V14.01,2013-03-26 01:55:00,
2013-03-25 21:00:00,31.6,17.3,29.20,SSW,202,0.0,0.0,55,0.00,,---,0.00,VWS V14.01,2013-03-26 02:00:00,
2013-03-25 21:05:00,31.6,17.3,29.20,SW,225,0.0,0.0,55,0.00,,---,0.00,VWS V14.01,2013-03-26 02:05:00,
2013-03-25 21:10:00,31.6,17.3,29.20,WNW,292,0.0,0.0,55,0.00,,---,0.00,VWS V14.01,2013-03-26 02:10:00,
2013-03-25 21:15:00,31.6,17.3,29.23,WNW,292,0.0,0.0,55,0.00,,---,0.00,VWS V14.01,2013-03-26 02:15:00,
2013-03-25 21:20:00,31.6,17.8,29.23,WNW,292,0.0,0.0,56,0.00,,---,0.00,VWS V14.01,2013-03-26 02:20:00,
2013-03-25 21:25:00,31.5,17.6,29.23,West,270,0.0,0.0,56,0.00,,---,0.00,VWS V14.01,2013-03-26 02:25:00,
2013-03-25 21:30:00,31.5,18.0,29.23,WNW,292,0.0,0.0,57,0.00,,---,0.00,VWS V14.01,2013-03-26 02:30:00,
2013-03-25 21:35:00,31.6,18.6,29.23,WNW,292,0.0,0.0,58,0.00,,---,0.00,VWS V14.01,2013-03-26 02:35:00,
2013-03-25 21:41:00,31.6,18.6,29.23,WNW,292,0.0,0.0,58,0.00,,---,0.00,VWS V14.01,2013-03-26 02:41:00,
2013-03-25 21:46:00,31.5,18.4,29.23,WNW,292,0.0,0.0,58,0.00,,---,0.00,VWS V14.01,2013-03-26 02:46:00,
2013-03-25 21:51:00,31.6,18.6,29.23,WNW,292,0.0,0.0,58,0.00,,---,0.00,VWS V14.01,2013-03-26 02:51:00,
2013-03-25 21:56:00,31.8,18.7,29.23,WNW,292,0.0,0.0,58,0.00,,---,0.00,VWS V14.01,2013-03-26 02:56:00,
2013-03-25 22:01:00,31.6,18.6,29.23,West,270,0.0,0.0,58,0.00,,---,0.00,VWS V14.01,2013-03-26 03:01:00,
2013-03-25 22:06:00,31.6,18.6,29.23,WSW,248,0.0,0.0,58,0.00,,---,0.00,VWS V14.01,2013-03-26 03:06:00,
2013-03-25 22:11:00,31.6,18.6,29.23,WNW,292,0.0,0.0,58,0.00,,---,0.00,VWS V14.01,2013-03-26 03:11:00,
2013-03-25 22:16:00,31.6,18.6,29.23,WNW,292,0.0,0.0,58,0.00,,---,0.00,VWS V14.01,2013-03-26 03:16:00,
2013-03-25 22:22:00,31.6,18.6,29.23,NW,315,0.0,0.0,58,0.00,,---,0.00,VWS V14.01,2013-03-26 03:22:00,
2013-03-25 22:27:00,31.5,18.4,29.23,NNW,338,0.0,0.0,58,0.00,,---,0.00,VWS V14.01,2013-03-26 03:27:00,
2013-03-25 22:32:00,31.3,18.2,29.23,NNW,338,0.0,0.0,58,0.00,,---,0.00,VWS V14.01,2013-03-26 03:32:00,
2013-03-25 22:37:00,31.3,18.6,29.23,West,270,0.0,0.0,59,0.00,,---,0.00,VWS V14.01,2013-03-26 03:37:00,
2013-03-25 22:42:00,31.3,18.6,29.23,NNW,338,0.0,0.0,59,0.00,,---,0.00,VWS V14.01,2013-03-26 03:42:00,
2013-03-25 22:47:00,31.3,18.6,29.23,WNW,292,0.0,0.0,59,0.00,,---,0.00,VWS V14.01,2013-03-26 03:47:00,
2013-03-25 22:52:00,31.3,18.6,29.23,WNW,292,0.0,0.0,59,0.00,,---,0.00,VWS V14.01,2013-03-26 03:52:00,
2013-03-25 22:57:00,31.3,18.6,29.23,WNW,292,0.0,0.0,59,0.00,,---,0.00,VWS V14.01,2013-03-26 03:57:00,
2013-03-25 23:00:00,31.1,18.5,29.23,West,270,0.0,0.0,59,0.00,,---,0.00,VWS V14.01,2013-03-26 04:00:00,
2013-03-25 23:02:00,31.1,18.5,29.23,WNW,292,0.0,0.0,59,0.00,,---,0.00,VWS V14.01,2013-03-26 04:02:00,
2013-03-25 23:07:00,31.1,18.5,29.23,WNW,292,0.0,0.0,59,0.00,,---,0.00,VWS V14.01,2013-03-26 04:07:00,
2013-03-25 23:12:00,30.9,18.3,29.23,WNW,292,0.0,0.0,59,0.00,,---,0.00,VWS V14.01,2013-03-26 04:12:00,
2013-03-25 23:17:00,30.9,18.3,29.23,WNW,292,0.0,0.0,59,0.00,,---,0.00,VWS V14.01,2013-03-26 04:17:00,
2013-03-25 23:23:00,30.9,18.3,29.23,NW,315,0.0,0.0,59,0.00,,---,0.00,VWS V14.01,2013-03-26 04:23:00,
2013-03-25 23:28:00,30.7,17.7,29.23,NW,315,0.0,0.0,58,0.00,,---,0.00,VWS V14.01,2013-03-26 04:28:00,
2013-03-25 23:33:00,30.6,18.0,29.23,WNW,292,0.0,0.0,59,0.00,,---,0.00,VWS V14.01,2013-03-26 04:33:00,
2013-03-25 23:38:00,30.6,18.0,29.23,WNW,292,0.0,0.0,59,0.00,,---,0.00,VWS V14.01,2013-03-26 04:38:00,
2013-03-25 23:43:00,30.4,17.8,29.23,WNW,292,0.0,0.0,59,0.00,,---,0.00,VWS V14.01,2013-03-26 04:43:00,
2013-03-25 23:48:00,30.2,18.0,29.26,WNW,292,0.0,0.0,60,0.00,,---,0.00,VWS V14.01,2013-03-26 04:48:00,
2013-03-25 23:53:00,30.0,17.8,29.26,WNW,292,0.0,0.0,60,0.00,,---,0.00,VWS V14.01,2013-03-26 04:53:00,
2013-03-25 23:58:00,29.7,17.9,29.26,WNW,292,0.0,0.0,61,0.00,,---,0.00,VWS V14.01,2013-03-26 04:58:00,